Weather Roundup
Issued by NWS

Home | Current Version | Previous Version | Graphics & Text | Print | Product List | Glossary Off
Versions: 1 2 3 4 5 6 7 8 9 10 11 12 13 14 15 16 17 18 19 20 21 22 23 24 25 26 27 28 29 30 31 32 33 34 35 36 37 38 39 40 41 42 43 44 45 46 47 48 49 50

000
NZUS93 KARX 010110
HRRWXR

CURRENT HOURLY OBSERVATIONS ACROSS
MUCH OF THE UPPER MISSISSIPPI VALLEY
NATIONAL WEATHER SERVICE LA CROSSE WI
700 PM CST SAT JAN 31 2015


...SOUTHEAST MINNESOTA...


CITY           SKY/WX    TMP DP  RH WIND       PRES   REMARKS
ROCHESTER      CLOUDY    26  21  81 NE14      30.12S WCI  14
ROCHESTER/MAYO CLOUDY    28  20  73 NE12G20   30.14R WCI  17
WINONA         CLOUDY    30  21  69 NE8       30.18S WCI  23
AUSTIN         LGT SNOW  27  25  93 NE13      30.10S WCI  16
ALBERT LEA     LGT SNOW  28  27  93 NE13      30.10S VSB 3/4 WCI  18
DODGE CENTER   CLOUDY    27  23  86 NE10      30.12S WCI  17
PRESTON        LGT SNOW  26  22  84 NE8       30.12S WCI  18
OWATONNA       CLOUDY    27  21  80 NE10      30.13S WCI  17
FARIBAULT      CLOUDY    27  19  74 NE13      30.16R WCI  16
$$

...ELSEWHERE IN MINNESOTA...


CITY           SKY/WX    TMP DP  RH WIND       PRES   REMARKS
MINNEAPOLIS    CLOUDY    27  15  61 NE13      30.19S WCI  16
INTNL FALLS    PTCLDY    -4 -15  59 NE6       30.41R WCI -16
DULUTH         MOCLDY    11  -4  51 N10       30.27R WCI  -3
RED WING       CLOUDY    28  18  64 NE6       30.18S WCI  22
REDWOOD FALLS  CLOUDY    26  20  77 NE7       30.16R WCI  18
MANKATO        CLOUDY    27  19  74 NE16      30.14R WCI  14
WORTHINGTON    CLOUDY    27  25  93 NE16      30.07R WCI  14
FAIRMONT       CLOUDY    27  25  93 NE16      30.08S WCI  14
$$

...SOUTHWEST WISCONSIN...


CITY           SKY/WX    TMP DP  RH WIND       PRES   REMARKS
LA CROSSE      NOT AVBL
PRAIRIE DU CHI MIX PCPN  30  27  87 CALM      30.14S
BOSCOBEL       LGT SNOW  32  25  75 E6        30.15S WCI  26
LONE ROCK      LGT SNOW  31  24  75 NE9       30.16S WCI  23
PLATTEVILLE    CLOUDY    31  29  91 NE6       30.12S WCI  25
FORT MC COY    CLOUDY    28  21  74 NE9       30.19S WCI  20
CAMP DOUGLAS   CLOUDY    28  25  88 VRB3      30.18R
VIROQUA        CLOUDY    28  25  87 NE10      30.12F WCI  19
WIS DELLS      CLOUDY    28  22  78 NE7       30.16S WCI  21
$$

...ELSEWHERE IN WISCONSIN...


CITY           SKY/WX    TMP DP  RH WIND       PRES   REMARKS
MILWAUKEE      CLOUDY    32  22  66 NE9       30.19R WCI  24
MADISON        FLURRIES  30  22  72 NE9       30.17R WCI  22
GREEN BAY      CLOUDY    27  20  75 NE6       30.23R WCI  20
EAU CLAIRE     CLOUDY    25  15  66 NE10      30.20S WCI  15
BLACK RVR FLS  CLOUDY    28  19  70 CALM      30.19R
MEDFORD        CLOUDY    20  11  68 NE10      30.18F WCI   9
WAUSAU         CLOUDY    24  15  68 NE6       30.18S WCI  17
WIS RAPIDS     CLOUDY    27  17  66 NE5       30.20S WCI  22
MARSHFIELD     CLOUDY    25  16  68 NE12      30.18S WCI  14
RICE LAKE      CLOUDY    23  12  63 NE13G18   30.23S WCI  11
$$

...NORTHEAST IOWA...


CITY           SKY/WX    TMP DP  RH WIND       PRES   REMARKS
DECORAH        LGT SNOW  28  27  93 NE8       30.11S VSB 3/4 WCI  20
MASON CITY     LGT SNOW  30  28  92 E13       30.08S FOG     WCI  20
CHARLES CITY   LGT SNOW  30  30 100 E12       30.09S WCI  21
OELWEIN        LGT SNOW  30  30 100 E9        30.09S WCI  22
$$

...ELSEWHERE IN IOWA...


CITY           SKY/WX    TMP DP  RH WIND       PRES   REMARKS
DES MOINES     LGT SNOW  34  32  92 SE7       30.03F VSB 1   WCI  28
IOWA CITY      LGT RAIN  35  34  96 SE6       30.11F FOG     WCI  30
FORT DODGE     CLOUDY    32  30  93 CALM      30.03S
$$

...NORTHERN ILLINOIS...


CITY           SKY/WX    TMP DP  RH WIND       PRES   REMARKS
CHICAGO-OHARE  CLOUDY    34  28  79 CALM      30.16F
CHICAGO-MIDWAY CLOUDY    37  29  72 SW5       30.18S WCI  33
MOLINE         LGT RAIN  34  32  92 SE3       30.13S FOG
ROCKFORD       FLURRIES  34  25  69 E6        30.17F WCI  29
PEORIA         LGT RAIN  35  32  88 SE3       30.17F FOG
$$

NOTE: "FAIR" INDICATES FEW OR NO CLOUDS BELOW 12,000 FEET WITH NO
SIGNIFICANT WEATHER AND/OR OBSTRUCTIONS TO VISIBILITY. WIND
SPEEDS ARE IN MILES-PER-HOUR.



USA.gov is the U.S. government's official web portal to all federal, state and local government web resources and services.